Regional Weather Roundup
Issued by NWS Northern Indiana

Home | Current Version | Previous Version | Text Only | Print | Product List | Glossary On
Versions: 1 2 3 4 5 6 7 8 9 10 11 12 13 14 15 16 17 18 19 20 21 22 23 24 25 26 27 28 29 30 31 32 33 34 35 36 37 38 39 40 41 42 43 44 45 46 47 48 49 50
000
ASUS43 KIWX 050610
RWRIWX

KIWX WEATHER ROUNDUP
NATIONAL WEATHER SERVICE NORTHERN INDIANA
200 AM EDT SAT SEP 05 2015

NOTE: "FAIR" INDICATES FEW OR NO CLOUDS BELOW 12,000 FEET WITH NO
SIGNIFICANT WEATHER AND/OR OBSTRUCTIONS TO VISIBILITY.

* THESE STATIONS ARE NOT UNDER NWS QUALITY CONTROL. THEY ALSO MAY NOT
  REPORT WEATHER SUCH AS PRECIPITATION OR FOG.

INZ001>027-050700-
NORTHERN INDIANA

CITY           SKY/WX    TMP DP  RH WIND       PRES   REMARKS
GARY*          CLEAR     68  66  93 CALM      30.06S FOG
VALPARAISO     PTCLDY    68  66  93 CALM      30.06F FOG
6HR MIN TEMP:  67; 6HR MAX TEMP:  78;

MICHIGAN CITY* MOCLDY    68  68 100 E3        30.07S FOG
LAPORTE*       MOCLDY   N/A N/A N/A CALM      30.08S
KNOX*          CLEAR     64  64 100 SE3       30.06F
SOUTH BEND     MOCLDY    71  68  90 S3        30.08F
6HR MIN TEMP:  68; 6HR MAX TEMP:  77;

GOSHEN         PTCLDY    68  65  90 S5        30.08S
6HR MIN TEMP:  68; 6HR MAX TEMP:  73; 6HR PCP: TRACE;

MONTICELLO*    PTCLDY    70  65  86 CALM      30.06S
6HR MIN TEMP:  69; 6HR MAX TEMP:  73;

LOGANSPORT*    CLEAR     64  61  88 S3        30.09S
ROCHESTER*     CLEAR     70  68  94 CALM      30.09F
WARSAW*        PTCLDY    66  64  94 CALM      30.09S
ANGOLA*        CLOUDY    70  61  73 CALM      30.10S
FORT WAYNE     MOCLDY    68  63  84 SW3       30.10F
6HR MIN TEMP:  67; 6HR MAX TEMP:  69;

HUNTINGTON*    MOCLDY    66  62  85 CALM      30.09F
6HR MIN TEMP:  65; 6HR MAX TEMP:  68;

PERU/GRISSOM   MOCLDY    68  65  92 S3        30.08S
6HR MIN TEMP:  67; 6HR MAX TEMP:  71;

MARION*        MOCLDY    65  60  82 NE7       30.11R
6HR MIN TEMP:  49; 6HR MAX TEMP:  91;


$$
INZ028>050-050700-
CENTRAL INDIANA

CITY           SKY/WX    TMP DP  RH WIND       PRES   REMARKS
LAFAYETTE      CLEAR     66  62  87 E3        30.06F
6HR MIN TEMP:  65; 6HR MAX TEMP:  76; 6HR PCP: TRACE;

KOKOMO*        PTCLDY    66  63  88 S5        30.09S
6HR MIN TEMP:  66; 6HR MAX TEMP:  70;

MUNCIE*        MOCLDY    64  63  96 CALM      30.10F
6HR MIN TEMP:  64; 6HR MAX TEMP:  70; 6HR PCP: TRACE;

INDIANAPOLIS   PTCLDY    70  64  81 CALM      30.08F
6HR MIN TEMP:  70; 6HR MAX TEMP:  80; 6HR PCP:  0.03;


$$
MIZ043>046-050>051-056>058-064>065-071>073-077>080-050700-
SOUTHWEST LOWER MICHIGAN

CITY           SKY/WX    TMP DP  RH WIND       PRES   REMARKS
BATTLE CREEK   CLOUDY    69  66  90 CALM      30.08S
6HR MIN TEMP:  68; 6HR MAX TEMP:  77;

BENTON HARBOR  MOCLDY    69  66  90 CALM      30.07R
6HR MIN TEMP:  65; 6HR MAX TEMP:  70; 6HR PCP: TRACE;

COLDWATER*     CLOUDY    70  69  95 SW5       30.09S
6HR MIN TEMP:  69; 6HR MAX TEMP:  74;

HILLSDALE*     CLOUDY    71  71 100 S5        30.10R FOG
HOLLAND        MOCLDY    64  62  93 CALM      30.08R FOG
6HR MIN TEMP:  63; 6HR MAX TEMP:  73;

GRAND RAPIDS   FOG       67  66  97 SE3       30.07S VSB 3/4
6HR MIN TEMP:  67; 6HR MAX TEMP:  75;

KALAMAZOO      MOCLDY    70  66  87 CALM      30.08S
6HR MIN TEMP:  67; 6HR MAX TEMP:  77;

STURGIS*       CLOUDY    68  66  94 CALM      30.09S
THREE RIVERS*  MOCLDY    70  69  96 CALM      30.09R
6HR MIN TEMP:  68; 6HR MAX TEMP:  78;


$$
OHZ001>008-015>018-024>025-050700-
NORTHWEST OHIO

CITY           SKY/WX    TMP DP  RH WIND       PRES   REMARKS
WAUSEON*       MOCLDY    70  68  94 SW6       30.09R
DEFIANCE       PTCLDY    70  65  84 CALM      30.09S
6HR MIN TEMP:  70; 6HR MAX TEMP:  74;

FINDLAY        PTCLDY    68  65  90 W3        30.08S
6HR MIN TEMP:  68; 6HR MAX TEMP:  71;

TOLEDO EXPRESS CLEAR     68  66  93 SW3       30.08S
6HR MIN TEMP:  67; 6HR MAX TEMP:  73;

TOLEDO METCALF PTCLDY    68  64  87 S3        30.08F
6HR MIN TEMP:  68; 6HR MAX TEMP:  74;

LIMA           PTCLDY    65  63  93 W5        30.10S
6HR MIN TEMP:  65; 6HR MAX TEMP:  70; 6HR PCP: TRACE;


$$
AND FOR LAKE MICHIGAN COASTAL AND OPEN LAKE BUOY OBSERVATIONS

STATION/POSITION TEMP    WIND        PRES    VSBY  WAVE
                 AIR SEA DIR/SP/G                  HT/PER
                 (F)     (DEG/KT/KT) (MB)    (MI)  (FT/S)
CALUMET HARBOR    71      10/  3/  4   N/A
MICHIGAN CITY     71      80/  2/  3   N/A
BURNS HARBOR      72     180/  1/  2 1018.3
SAINT JOSEPH      69     110/  2/  4 1018.6S
SOUTH LAKE BUOY   69 71  140/  2/  4 1017.7R         1
4 MI NW BRIDGMAN  72 75  180/  4/  6   N/A           1
MICHIGAN CITY     73 74  130/  4/  8   N/A           1

$$
&&


USA.gov is the U.S. government's official web portal to all federal, state and local government web resources and services.